This demonstration page uses our WeatherBlox Daily Observations layout. Learn more.

Left ArrowRight Arrow

39.51506, -84.39828

Hourly Observations for March 27, 2018

Temp ( °F °C ) Dew Point ( °F °C ) Humidity (%) Winds ( mph kmh ) Pressure ( in mb ) Visibility ( mi km ) Precip ( " mm )
12:15 am 00:15 Cloudy 48 8.7 35 1.8 62 62 SSE 7 11 30.21 1023 10 16.0934 N/A
12:35 am 00:35 Cloudy 48 8.9 35 1.8 61 61 SSE 8 13 30.21 1023 10 16.0934 N/A
12:55 am 00:55 Cloudy 48 9.1 36 2 61 61 S 7 11 30.21 1023 10 16.0934 N/A
1:15 am 01:15 Cloudy 49 9.2 36 2 61 61 SSE 8 13 30.18 1022 10 16.0934 N/A
1:35 am 01:35 Cloudy 49 9.6 36 2.2 60 60 S 9 15 30.18 1022 10 16.0934 N/A
1:55 am 01:55 Cloudy 50 9.9 36 2.4 60 60 S 8 13 30.18 1022 10 16.0934 N/A
2:15 am 02:15 Cloudy 51 10.4 38 3.2 61 61 S 8 13 30.18 1022 10 16.0934 N/A
2:35 am 02:35 Cloudy with Light Rain 51 10.6 41 5 69 69 S 13 20 30.18 1022 10 16.0934 N/A
2:55 am 02:55 Cloudy with Light Rain 51 10.7 44 6.5 75 75 S 13 20 30.15 1021 10 16.0934 N/A
3:15 am 03:15 Cloudy 51 10.5 44 6.9 79 79 S 13 20 30.15 1021 10 16.0934 N/A
3:35 am 03:35 Cloudy 51 10.5 45 7.1 80 80 S 12 19 30.15 1021 10 16.0934 N/A
3:55 am 03:55 Cloudy 51 10.5 45 7.2 80 80 S 13 20 30.15 1021 10 16.0934 N/A
4:15 am 04:15 Cloudy 51 10.5 45 7.2 80 80 S 13 20 30.15 1021 10 16.0934 N/A
4:35 am 04:35 Cloudy 51 10.6 45 7.2 80 80 S 12 19 30.15 1021 10 16.0934 N/A
4:55 am 04:55 Cloudy 51 10.6 45 7.2 80 80 S 10 17 30.15 1021 10 16.0934 N/A
5:15 am 05:15 Cloudy 51 10.7 45 7.2 79 79 S 10 17 30.12 1020 10 16.0934 N/A
5:35 am 05:35 Cloudy 51 10.4 45 7.1 80 80 SSE 10 17 30.12 1020 10 16.0934 N/A
5:55 am 05:55 Cloudy 51 10.3 45 7 80 80 S 10 17 30.12 1020 10 16.0934 N/A
6:15 am 06:15 Cloudy 51 10.7 45 7.4 80 80 S 13 20 30.12 1020 10 16.0934 N/A
6:35 am 06:35 Cloudy 51 10.7 46 7.5 81 81 S 14 22 30.12 1020 10 16.0934 N/A
6:55 am 06:55 Cloudy 51 10.8 46 7.6 81 81 S 14 22 30.12 1020 10 16.0934 N/A
7:15 am 07:15 Cloudy 52 11 46 7.7 80 80 S 13 20 30.12 1020 10 16.0934 N/A
7:35 am 07:35 Cloudy 52 11 46 7.8 81 81 S 12 19 30.12 1020 10 16.0934 N/A
7:55 am 07:55 Cloudy 52 10.9 46 7.8 81 81 S 13 20 30.12 1020 10 16.0934 N/A
8:15 am 08:15 Cloudy 52 11 46 7.9 81 81 S 14 22 30.12 1020 10 16.0934 N/A
8:35 am 08:35 Cloudy 52 11.1 47 8.1 82 82 S 10 17 30.12 1020 10 16.0934 N/A
8:55 am 08:55 Cloudy with Light Rain 52 11.2 47 8.3 83 83 S 10 17 30.15 1021 10 16.0934 N/A
9:15 am 09:15 Cloudy with Light Rain 52 11 48 8.9 87 87 SSW 9 15 30.15 1021 10 16.0934 N/A
9:35 am 09:35 Cloudy with Light Rain 52 11.3 49 9.3 88 88 SSW 9 15 30.15 1021 10 16.0934 0.01 0.254
9:55 am 09:55 Cloudy 52 11.3 49 9.5 89 89 SSW 8 13 30.15 1021 10 16.0934 0.01 0.254
10:15 am 10:15 Cloudy 53 11.7 49 9.4 86 86 S 12 19 30.12 1020 10 16.0934 N/A
10:35 am 10:35 Cloudy 53 11.8 49 9.5 86 86 SSW 12 19 30.12 1020 10 16.0934 N/A
10:55 am 10:55 Cloudy 54 12.1 49 9.7 85 85 SSW 13 20 30.12 1020 10 16.0934 N/A
11:15 am 11:15 Cloudy 54 12.1 50 9.9 87 87 SSW 15 24 30.12 1020 7 11.26538 N/A
11:35 am 11:35 Cloudy with Mist and Fog 54 12 50 10.2 89 89 SSW 14 22 30.12 1020 7 11.26538 N/A
11:55 am 11:55 Cloudy 54 12 50 10.1 88 88 SSW 14 22 30.12 1020 10 16.0934 N/A
12:15 pm 12:15 Cloudy with Mist and Fog 53 11.9 50 10.1 89 89 SSW 14 22 30.12 1020 7 11.26538 N/A
12:35 pm 12:35 Cloudy with Mist and Fog 53 11.8 51 10.3 91 91 SSW 15 24 30.12 1020 5 8.0467 N/A
12:55 pm 12:55 Cloudy with Drizzle 53 11.5 51 10.5 94 94 SSW 14 22 30.09 1019 2 3.21868 N/A
1:15 pm 13:15 Cloudy with Drizzle 53 11.4 51 10.7 96 96 SSW 13 20 30.09 1019 1.5 2.41401 N/A
1:35 pm 13:35 Cloudy with Drizzle 53 11.5 51 10.6 94 94 SSW 8 13 30.09 1019 2 3.21868 N/A
1:55 pm 13:55 Cloudy with Rain 53 11.6 51 10.7 94 94 SSW 10 17 30.09 1019 1.75 2.816345 0.01 0.254
2:15 pm 14:15 Cloudy with Light Rain 53 11.7 52 10.9 95 95 SSW 8 13 30.09 1019 2 3.21868 0.01 0.254
2:35 pm 14:35 Cloudy with Mist and Fog 53 11.9 52 11.1 95 95 SSW 10 17 30.09 1019 3.5 5.63269 0.01 0.254
2:55 pm 14:55 Cloudy with Mist and Fog 54 12 52 11.1 94 94 SSW 13 20 30.09 1019 5 8.0467 0.01 0.254
3:15 pm 15:15 Cloudy with Mist and Fog 54 12.1 52 11.1 94 94 SSW 12 19 30.06 1018 5 8.0467 N/A
3:35 pm 15:35 Cloudy with Mist and Fog 54 12.1 52 11.2 94 94 SSW 9 15 30.06 1018 3.5 5.63269 N/A
3:55 pm 15:55 Cloudy with Mist and Fog 54 12.3 52 11.2 93 93 SSW 9 15 30.06 1018 5 8.0467 N/A
4:15 pm 16:15 Cloudy 55 12.6 52 11.2 91 91 SW 8 13 30.06 1018 10 16.0934 N/A
4:35 pm 16:35 Cloudy 56 13.1 52 11.1 88 88 SSW 8 13 30.06 1018 10 16.0934 N/A
4:55 pm 16:55 Cloudy 56 13.3 52 11 86 86 SW 10 17 30.06 1018 10 16.0934 N/A
5:15 pm 17:15 Cloudy with Light Rain 56 13.4 52 11.2 87 87 SW 12 19 30.03 1017 10 16.0934 N/A
5:35 pm 17:35 Cloudy with Light Rain 56 13.2 52 11.2 88 88 SW 13 20 30.06 1018 7 11.26538 N/A
5:55 pm 17:55 Cloudy with Light Rain 55 12.8 52 11.3 91 91 SW 10 17 30.06 1018 5 8.0467 0.01 0.254
6:15 pm 18:15 Cloudy with Light Rain 55 12.9 53 11.7 92 92 SSW 13 20 30.06 1018 5 8.0467 0.01 0.254
6:35 pm 18:35 Cloudy with Light Rain 55 12.6 53 11.7 94 94 SSW 9 15 30.06 1018 5 8.0467 0.02 0.508
6:55 pm 18:55 Cloudy with Light Rain 55 12.5 53 11.7 95 95 SW 9 15 30.06 1018 5 8.0467 0.02 0.508
7:15 pm 19:15 Cloudy with Light Rain 54 12.4 53 11.8 96 96 SSW 7 11 30.03 1017 4 6.43736 0.01 0.254
7:35 pm 19:35 Cloudy with Light Rain 54 12.4 53 11.8 96 96 SSW 8 13 30.03 1017 5 8.0467 0.02 0.508
7:55 pm 19:55 Cloudy with Light Rain 54 12.4 53 11.8 96 96 S 6 9 30.03 1017 4 6.43736 0.03 0.762
8:15 pm 20:15 Cloudy with Light Rain 54 12.3 53 11.8 97 97 SSW 8 13 30.03 1017 7 11.26538 0.01 0.254
8:35 pm 20:35 Cloudy with Light Rain 54 12.3 53 11.8 97 97 SSW 7 11 30.03 1017 4 6.43736 0.02 0.508
8:55 pm 20:55 Cloudy with Rain 54 12.1 53 11.7 97 97 SW 5 7 30.03 1017 4 6.43736 0.04 1.016
9:15 pm 21:15 Cloudy with Light Rain 53 11.9 53 11.6 98 98 SSW 3 6 30.03 1017 3.5 5.63269 0.01 0.254
9:35 pm 21:35 Cloudy with Light Rain 54 12.1 53 11.8 98 98 SSW 5 7 30.03 1017 2.5 4.02335 0.01 0.254
9:55 pm 21:55 Cloudy with Light Rain 54 12.1 53 11.8 98 98 SW 5 7 30.06 1018 1.75 2.816345 0.03 0.762
10:15 pm 22:15 Cloudy with Light Rain 54 12 53 11.7 98 98 SW 5 7 30.06 1018 2 3.21868 0.01 0.254
10:35 pm 22:35 Cloudy with Light Rain 54 12 53 11.8 99 99 SSW 5 7 30.06 1018 1.5 2.41401 0.02 0.508
10:55 pm 22:55 Cloudy with Light Rain 53 11.9 53 11.7 99 99 SW 5 7 30.03 1017 1.25 2.011675 0.04 1.016
11:15 pm 23:15 Cloudy with Light Rain 53 11.9 53 11.7 99 99 SSW 6 9 30.03 1017 1.5 2.41401 0.01 0.254
11:35 pm 23:35 Cloudy with Drizzle 53 11.8 53 11.7 99 99 SSW 5 7 30.03 1017 1.5 2.41401 0.01 0.254
11:55 pm 23:55 Cloudy with Drizzle 54 12 53 11.8 99 99 SSW 5 7 30.03 1017 2.5 4.02335 0.01 0.254

Powered by AerisWeather